sat.trackr.live / text

‹ back to catalog

STARLINK-37187

NORAD 68399 · 2026-063V

PAYLOAD ACTIVE UNKNOWN

§ Identity

Operator
Country
US
Launch date
2026-03-26
Launch site
AFWTR
Launch vehicle
Mass (kg)
RCS (m²)

Purposes: comms

External: N2YO · Heavens-Above · Gunter

§ Orbital elements

Epoch: 2026-09-19T15:29:59.917632Z

Period
93.91 min
Inclination
97.2873°
Eccentricity
0.0001431
Mean motion
15.33453216 rev/d
Perigee alt
464.5 km
Apogee alt
466.5 km
Semi-major
6,843.7 km
B*
6.0977e-4
RAAN
43.6110°
Arg perigee
96.9838°
Mean anomaly
263.1568°
Rev number
2,762

§ Raw data

STARLINK-371871 68399U 26063V   26262.64583238  .00019667  00000+0  60977-3 0  99992 68399  97.2873  43.6110 0001431  96.9838 263.1568 15.33453216 27621

JSON: /api/v1/satellites/68399 · /tle

For live sub-satellite position, see the globe view (requires WebGL).

§ Visibility from observer

Set your observer location to see the next 7 days of passes ≥ 10°. The values pass through the URL so the page stays shareable.

No JS? Fill the form by hand. The geolocation button needs JavaScript.